FW4030 Weather Reports


time (UTC)temp
F
wind
direction
speed
knots
gust
knots
rain 1hr
in
rain 24hr
in
rain mn
in
humidity
%
barometer
mb
20260502163013 77 97 0.9 3.5 0.00 0.00 0.00 47 1026.0
20260502162012 76 157 1.7 2.6 0.00 0.00 0.00 46 1026.0
20260502161110 78 173 2.6 3.5 0.00 0.00 0.00 44 1026.1
20260502160112 78 157 2.6 3.5 0.00 0.00 0.00 45 1026.3
20260502152210 78 176 2.6 4.3 0.00 0.00 0.00 45 1026.5
20260502150212 77 180 3.5 6.1 0.00 0.00 0.00 45 1027.0
20260502150112 77 176 1.7 3.5 0.00 0.00 0.00 45 1026.9
20260502140111 79 204 3.5 5.2 0.00 0.00 0.00 44 1027.7
20260502123113 80 202 2.6 4.3 0.00 0.00 0.00 43 1028.6
20260502122113 80 170 3.5 6.1 0.00 0.00 0.00 43 1028.7
20260502121210 81 161 3.5 6.1 0.00 0.00 0.00 43 1028.8
20260502120111 79 180 0.9 2.6 0.00 0.00 0.00 45 1028.8
20260502115112 79 170 2.6 5.2 0.00 0.00 0.00 45 1028.8
20260502114111 77 180 0.9 2.6 0.00 0.00 0.00 45 1029.0
20260502113112 77 157 7.0 9.6 0.00 0.00 0.00 47 1029.1
20260502113012 77 161 6.1 10.4 0.00 0.00 0.00 47 1029.1
20260502110110 74 158 2.6 7.0 0.00 0.00 0.00 49 1029.5
20260502105111 73 159 6.1 7.8 0.00 0.00 0.00 50 1029.8
20260502104112 72 174 5.2 11.3 0.00 0.00 0.00 50 1029.7
20260502103111 72 164 0.9 3.5 0.00 0.00 0.00 50 1029.8
20260502101112 72 177 1.7 3.5 0.00 0.00 0.00 49 1030.1
20260502070912 61 157 3.5 4.3 0.00 0.00 0.00 56 1030.7
20260502065913 59 157 3.5 5.2 0.00 0.00 0.00 59 1030.8
20260502064912 58 158 3.5 5.2 0.00 0.00 0.00 60 1030.8
20260502063911 58 157 4.3 5.2 0.00 0.00 0.00 61 1030.7
20260502063812 57 157 4.3 6.1 0.00 0.00 0.00 61 1030.8
20260502062812 56 157 2.6 3.5 0.00 0.00 0.00 62 1030.7
20260502061011 54 157 1.7 3.5 0.00 0.00 0.00 65 1030.6
20260502060013 54 157 4.3 7.0 0.00 0.00 0.00 65 1030.7
20260502055012 53 157 2.6 4.3 0.00 0.00 0.00 66 1030.7
20260502054912 53 157 4.3 6.1 0.00 0.00 0.00 66 1030.7
20260502053912 52 157 3.5 6.1 0.00 0.00 0.00 67 1030.6
20260502052911 52 157 2.6 3.5 0.00 0.00 0.00 68 1030.5
20260502051912 51 157 2.6 5.2 0.00 0.00 0.00 68 1030.5
20260502051011 51 159 2.6 4.3 0.00 0.00 0.00 68 1030.4
20260502050012 50 156 2.6 3.5 0.00 0.00 0.00 69 1030.4
20260502045013 50 157 1.7 3.5 0.00 0.00 0.00 69 1030.6
20260502044112 49 151 2.6 3.5 0.00 0.00 0.00 69 1030.4
20260502043114 49 141 1.7 3.5 0.00 0.00 0.00 68 1030.5
20260502043013 49 153 0.9 3.5 0.00 0.00 0.00 68 1030.5
20260502042012 49 157 1.7 2.6 0.00 0.00 0.00 68 1030.5
20260502041011 49 143 0.9 2.6 0.00 0.00 0.00 67 1030.6
20260502035011 49 157 1.7 2.6 0.00 0.00 0.00 67 1030.7
20260502034912 50 157 0.9 1.7 0.00 0.00 0.00 67 1030.7
20260502033913 50 157 0.9 1.7 0.00 0.00 0.00 66 1030.6
20260502032911 50 135 0.9 1.7 0.00 0.00 0.00 66 1030.8
20260502032813 50 143 1.7 3.5 0.00 0.00 0.00 66 1030.8
20260502030813 50 157 1.7 3.5 0.00 0.00 0.00 65 1031.2
20260502025910 50 157 1.7 3.5 0.00 0.00 0.00 65 1031.0
20260502024911 50 157 1.7 2.6 0.00 0.00 0.00 65 1031.0
20260502023911 50 157 0.9 2.6 0.00 0.00 0.00 64 1031.3
20260502023010 50 157 0.0 1.7 0.00 0.00 0.00 64 1031.2
20260502022012 49 157 0.0 1.7 0.00 0.00 0.00 64 1031.2
20260502021912 49 157 0.0 1.7 0.00 0.00 0.00 64 1031.3
20260502015011 49 157 0.0 0.9 0.00 0.00 0.00 62 1031.6
20260502014011 49 157 0.0 0.0 0.00 0.00 0.00 62 1031.4
20260502013012 49 157 0.0 1.7 0.00 0.00 0.00 61 1031.5
20260502012110 49 157 1.7 2.6 0.00 0.00 0.00 59 1031.4
20260502011111 50 157 0.9 1.7 0.00 0.00 0.00 59 1031.6
20260502005214 51 157 0.9 1.7 0.00 0.00 0.00 57 1032.0
20260502004212 52 157 0.9 1.7 0.00 0.00 0.00 56 1032.1
20260502003310 52 157 1.7 2.6 0.00 0.00 0.00 56 1032.1
20260502002410 52 157 0.0 0.9 0.00 0.00 0.00 55 1032.2
20260502002310 52 157 0.0 0.0 0.00 0.00 0.00 55 1032.3
20260502000313 53 157 0.9 1.7 0.00 0.00 0.00 54 1032.4
20260501235411 53 157 0.9 1.7 0.00 0.00 0.00 54 1032.5
20260501235312 53 157 0.0 0.9 0.00 0.00 0.00 54 1032.5
20260501233310 53 157 0.9 1.7 0.00 0.00 0.00 53 1032.6
20260501232312 53 157 0.9 2.6 0.00 0.00 0.00 52 1032.7
20260501230410 54 157 0.9 1.7 0.00 0.00 0.00 50 1032.8
20260501225412 55 157 0.0 1.7 0.00 0.00 0.00 49 1032.7
20260501223411 55 157 0.0 0.9 0.00 0.00 0.00 48 1032.8
20260501222410 56 157 1.7 2.6 0.00 0.00 0.00 47 1032.8
20260501221413 56 157 0.9 2.6 0.00 0.00 0.00 46 1032.9
20260501220511 57 157 1.7 1.7 0.00 0.00 0.00 45 1032.9
20260501215512 58 157 1.7 2.6 0.00 0.00 0.00 44 1032.8
20260501214514 58 157 2.6 3.5 0.00 0.00 0.00 44 1032.9
20260501212612 59 157 1.7 3.5 0.00 0.00 0.00 43 1032.7
20260501211711 60 157 1.7 5.2 0.00 0.00 0.00 42 1032.8
20260501211613 60 157 1.7 2.6 0.00 0.00 0.00 42 1032.9
20260501210712 60 157 3.5 4.3 0.00 0.00 0.00 43 1032.9
20260501205712 60 157 3.5 4.3 0.00 0.00 0.00 42 1032.9
20260501204713 60 157 4.3 5.2 0.00 0.00 0.00 42 1032.9
20260501203714 60 155 2.6 4.3 0.00 0.00 0.00 42 1032.9
20260501202713 61 157 2.6 4.3 0.00 0.00 0.00 42 1032.9
20260501200713 61 157 2.6 5.2 0.00 0.00 0.00 41 1033.1
20260501195613 62 156 3.5 5.2 0.00 0.00 0.00 40 1033.0
20260501194613 62 157 2.6 5.2 0.00 0.00 0.00 40 1032.9
20260501193711 62 157 2.6 4.3 0.00 0.00 0.00 40 1032.9
20260501192714 63 157 1.7 4.3 0.00 0.00 0.00 39 1032.9
20260501191811 64 157 0.9 1.7 0.00 0.00 0.00 39 1032.9
20260501190810 65 157 0.0 0.0 0.00 0.00 0.00 37 1032.8
20260501185812 66 159 1.7 3.5 0.00 0.00 0.00 39 1032.7
20260501184813 67 157 0.9 0.9 0.00 0.00 0.00 36 1032.7
20260501183811 68 140 1.7 3.5 0.00 0.00 0.00 33 1032.8
20260501182813 69 136 3.5 4.3 0.00 0.00 0.00 32 1032.8
20260501180814 70 135 2.6 5.2 0.00 0.00 0.00 30 1032.7
20260501175814 71 142 2.6 5.2 0.00 0.00 0.00 29 1032.6
20260501174815 72 144 3.5 8.7 0.00 0.00 0.00 29 1032.7
20260501172912 73 134 3.5 6.1 0.00 0.00 0.00 28 1032.7
20260501171914 74 135 4.3 7.0 0.00 0.00 0.00 27 1032.6
20260501170913 75 135 4.3 8.7 0.00 0.00 0.00 26 1032.6
20260501170012 76 135 3.5 5.2 0.00 0.00 0.00 26 1032.7
20260501165011 76 135 5.2 8.7 0.00 0.00 0.00 26 1032.7
20260501164014 76 133 2.6 4.3 0.00 0.00 0.00 25 1032.8